Location: Utrecht
(52.0907°N, 5.1214°E)
Time: 09:23:07
(UTC+02:00)

MOZHAYETS 4 - Pass Details

Date: 07 July 2022
Orbit: 660 x 678 km, 98.2° (Epoch: 17 August)

Event Time Altitude Azimuth Distance (km) Brightness Sun altitude
Exits shadow 04:39:27 - 195° (SSW) 2,547 10.1 -6.1°
Reaches altitude 10° 04:40:39 10° 201° (SSW) 2,104 9.7 -6.0°
Maximum altitude 04:44:46 32° 265° (W) 1,158 8.6 -5.6°
Drops below altitude 10° 04:48:54 10° 328° (NNW) 2,108 10.5 -5.2°
Sets 04:51:21 0° 339° (NNW) 3,024 11.5 -4.9°
